Simultaneous Nadir Overpasses (SNOs) Predictions

Prediction of SNOs between NOAA-20 and LANDSAT-8 Satellite Orbit:

Table of predicted SNOs for the next 14.0 days since TLE Epoch: 6/22/2019
Index Date (NOAA-20) Time (NOAA-20) Lat,Lon (NOAA-20) SZA (NOAA-20 ) Date (LANDSAT-8) Time (LANDSAT-8) Lat,Lon (LANDSAT-8) SZA (LANDSAT-8 ) Distance(km) Time Diff (sec)
1 06/22/2019 14:15:43 -71.02, 140.95 132.41 06/22/2019 14:16:50 -70.90, 143.36 132.61 88.39 67
2 06/22/2019 15:06:11 70.06, -50.21 46.59 06/22/2019 15:06:30 70.10, -50.19 46.62 3.43 19
3 06/22/2019 15:56:53 -69.98, 117.24 133.51 06/22/2019 15:56:00 -69.98, 117.28 133.50 1.62 53
4 06/25/2019 06:32:21 -70.24,-102.01 133.19 06/25/2019 06:33:32 -70.19,-101.82 133.25 8.62 71
5 06/25/2019 07:23:03 70.02, 65.63 46.59 06/25/2019 07:23:00 70.03, 65.60 46.60 2.25 3
6 06/25/2019 08:13:44 -69.87,-126.83 133.56 06/25/2019 08:12:31 -69.87,-127.00 133.55 6.34 73
7 06/27/2019 22:49:13 -70.14, 13.92 133.20 06/27/2019 22:50:03 -70.13, 13.98 133.21 2.18 50
8 06/27/2019 23:39:57 70.03,-178.60 46.69 06/27/2019 23:39:30 70.03,-178.53 46.69 2.72 27
9 06/28/2019 00:30:22 -69.03, -9.85 134.34 06/28/2019 00:29:15 -69.09, -12.16 134.19 92.12 67
10 06/30/2019 15:06:06 -70.09, 129.76 133.10 06/30/2019 15:06:34 -70.07, 129.77 133.13 2.28 28
11 06/30/2019 15:56:50 69.98, -62.76 46.79 06/30/2019 15:56:01 69.96, -62.74 46.77 2.55 49
12 07/03/2019 06:32:21 70.35, 77.81 47.37 07/03/2019 06:33:32 70.27, 78.30 47.26 20.63 71
13 07/03/2019 07:22:59 -70.05,-114.39 132.95 07/03/2019 07:23:04 -70.06,-114.37 132.94 1.68 5
14 07/03/2019 08:13:43 69.94, 53.08 46.94 07/03/2019 08:12:31 69.94, 53.12 46.95 1.71 72
15 07/05/2019 22:49:09 70.10,-166.02 47.35 07/05/2019 22:50:04 70.09,-166.08 47.32 2.58 55
16 07/05/2019 23:39:51 -70.00, 1.44 132.76 07/05/2019 23:39:34 -69.99, 1.41 132.77 1.99 17
17 07/06/2019 00:30:21 69.15, 169.99 46.36 07/06/2019 00:29:13 69.21, 168.00 46.50 78.77 68




NCC Satellite Simultaneous Nadir Overpasses (SNOs) Prediction Service
